Погода в Алексине

Россия / Московская область     55°23′47″N   36°18′02″E
темп.,
°C
ветер,
м/с
пор.,
м/с
влажн.,
%
обл.,
%
осадки,
мм/ч
давл.,
гПа
погр.,
м
13 июня, вс
вс1300:00+13юз2295100 0.0 100718
03:00+12юз22965 0.0 100723
06:00+14ююз23910 0.0 1006114
09:00+19ююз24674 0.0 1006745
12:00+22ююз345230 0.1 10061722
15:00+24ю444599 0.1 10052365
18:00+22ю256492 0.0 1006503
21:00+16ю249075 0.2 100778
14 июня, пн
пн1400:00+15ю239375 0.0 100947
03:00+13ю239718 0.0 101053
06:00+15ю129387 0.0 101193
09:00+21ююз247071 0.0 1013676
12:00+24юз345345 0.0 10141560
15:00+26юз234556 0.0 10142158
18:00+21юз2272100 0.0 101448
21:00+18з128461 0.1 101523
15 июня, вт
вт1500:00+16сз22945 0.0 101518
03:00+14з11955 0.0 101511
06:00+16зсз12895 0.0 101577
09:00+21зсз23655 0.0 1014565
12:00+24зсз23520 0.0 10131482
15:00+25зсз234726 0.0 10111920
18:00+22зсз367086 0.1 1011337
21:00+18сз368517 0.1 1011105
16 июня, ср
ср1600:00+15сз24900 0.0 101170
03:00+13сз24920 0.0 101172
06:00+15сз398129 0.0 1012272
09:00+19ссз466927 0.0 1013709
12:00+21ссз566061 0.3 10141271
15:00+22сз56424 0.3 10151798
18:00+21ссз57490 0.0 10161484
21:00+15с3107048 0.0 1018268
17 июня, чт
чт1700:00+12с25715 0.0 102071
03:00+10с26781 0.0 1022123
06:00+12с26730 0.0 1023158
09:00+18ссв35440 0.0 1024788
12:00+21с34370 0.0 10251637
15:00+22с34361 0.0 10241840
18:00+22с24490 0.0 10251708
21:00+15св22755 0.0 102612